When you browse on this site, cookies collect data to enhance your experience and personalize the content and advertising you see.
Visit our Privacy Policy to learn more. By continuing to use the site, you agree to this use of cookies and data.

Meteo pe oră la Saint-Pol-sur-Mer

Astăzi, 5 Iulie, Duminică

Timp Temperatura Precipitaţii Vânt Presiune Umiditate
00:00 +17°C° 0 mm 11 m/s 759 mmHg 82%
01:00 +17°C° 0 mm 12 m/s 758 mmHg 82%
02:00 +17°C° 0 mm 12 m/s 758 mmHg 82%
03:00 +17°C° 0 mm 12 m/s 758 mmHg 82%
04:00 +18°C° 0 mm 12 m/s 758 mmHg 82%
05:00 +18°C° 0 mm 12 m/s 758 mmHg 82%
06:00 +17°C° 0 mm 12 m/s 758 mmHg 81%
07:00 +17°C° 0 mm 12 m/s 758 mmHg 81%
08:00 +18°C° 0 mm 12 m/s 758 mmHg 82%
09:00 +18°C° 0 mm 12 m/s 758 mmHg 82%
10:00 +18°C° 0 mm 12 m/s 758 mmHg 79%
11:00 +19°C° 0 mm 12 m/s 758 mmHg 76%
12:00 +19°C° 0 mm 12 m/s 759 mmHg 73%
13:00 +19°C° 0 mm 12 m/s 759 mmHg 68%
14:00 +19°C° 0 mm 12 m/s 759 mmHg 64%
15:00 +19°C° 0 mm 12 m/s 759 mmHg 60%
16:00 +18°C° 0 mm 11 m/s 759 mmHg 63%
17:00 +17°C° 0 mm 11 m/s 759 mmHg 66%
18:00 +16°C° 0 mm 10 m/s 759 mmHg 69%
19:00 +16°C° 0 mm 10 m/s 759 mmHg 70%
20:00 +15°C° 0 mm 9 m/s 760 mmHg 71%
21:00 +13°C° 0 mm 9 m/s 760 mmHg 71%
22:00 +13°C° 0 mm 9 m/s 760 mmHg 68%
23:00 +13°C° 0 mm 9 m/s 760 mmHg 65%

Mâine, 6 Iulie, Luni

Timp Temperatura Precipitaţii Vânt Presiune Umiditate
00:00 +13°C° 0 mm 9 m/s 760 mmHg 62%
01:00 +12°C° 0 mm 9 m/s 760 mmHg 67%
02:00 +12°C° 0 mm 9 m/s 760 mmHg 71%
03:00 +11°C° 0 mm 9 m/s 760 mmHg 76%
04:00 +12°C° 0 mm 9 m/s 760 mmHg 76%
05:00 +12°C° 0 mm 9 m/s 761 mmHg 75%
06:00 +13°C° 0 mm 9 m/s 761 mmHg 75%
07:00 +13°C° 0 mm 9 m/s 761 mmHg 72%
08:00 +15°C° 0 mm 8 m/s 762 mmHg 69%
09:00 +15°C° 0 mm 8 m/s 762 mmHg 66%
10:00 +16°C° 0 mm 8 m/s 762 mmHg 63%
11:00 +16°C° 0 mm 8 m/s 763 mmHg 61%
12:00 +17°C° 0 mm 7 m/s 763 mmHg 58%
13:00 +17°C° 0 mm 7 m/s 763 mmHg 58%
14:00 +18°C° 0 mm 7 m/s 764 mmHg 58%
15:00 +19°C° 0 mm 6 m/s 764 mmHg 58%
16:00 +19°C° 0.1 mm 6 m/s 765 mmHg 63%
17:00 +17°C° 0.1 mm 5 m/s 765 mmHg 67%
18:00 +17°C° 0.1 mm 4 m/s 765 mmHg 72%
19:00 +15°C° 0 mm 4 m/s 766 mmHg 76%
20:00 +14°C° 0 mm 3 m/s 767 mmHg 79%
21:00 +12°C° 0 mm 3 m/s 767 mmHg 82%
22:00 +13°C° 0 mm 2 m/s 767 mmHg 82%
23:00 +13°C° 0 mm 2 m/s 767 mmHg 82%

Poimâine, 7 Iulie, Marţi

Timp Temperatura Precipitaţii Vânt Presiune Umiditate
00:00 +12°C° 0 mm 1 m/s 767 mmHg 82%
01:00 +12°C° 0 mm 2 m/s 767 mmHg 83%
02:00 +10°C° 0 mm 2 m/s 767 mmHg 84%
03:00 +10°C° 0 mm 2 m/s 767 mmHg 85%
04:00 +12°C° 0 mm 2 m/s 767 mmHg 84%
05:00 +13°C° 0 mm 2 m/s 767 mmHg 83%
06:00 +13°C° 0 mm 3 m/s 766 mmHg 82%
07:00 +14°C° 0 mm 3 m/s 766 mmHg 74%
08:00 +17°C° 0 mm 3 m/s 766 mmHg 66%
09:00 +18°C° 0 mm 3 m/s 766 mmHg 59%
10:00 +19°C° 0 mm 3 m/s 766 mmHg 56%
11:00 +19°C° 0 mm 4 m/s 765 mmHg 54%
12:00 +20°C° 0 mm 5 m/s 765 mmHg 52%
13:00 +20°C° 0 mm 5 m/s 765 mmHg 53%
14:00 +20°C° 0 mm 6 m/s 764 mmHg 53%
15:00 +20°C° 0 mm 7 m/s 764 mmHg 54%
16:00 +20°C° 0 mm 7 m/s 764 mmHg 57%
17:00 +18°C° 0 mm 7 m/s 763 mmHg 61%
18:00 +17°C° 0 mm 7 m/s 763 mmHg 64%
19:00 +16°C° 0 mm 7 m/s 763 mmHg 68%
20:00 +15°C° 0 mm 7 m/s 763 mmHg 73%
21:00 +14°C° 0 mm 7 m/s 763 mmHg 77%
22:00 +13°C° 0 mm 8 m/s 763 mmHg 76%
23:00 +13°C° 0 mm 8 m/s 762 mmHg 74%

8 Iulie, Miercuri

Timp Temperatura Precipitaţii Vânt Presiune Umiditate
00:00 +13°C° 0 mm 8 m/s 762 mmHg 73%
01:00 +13°C° 0 mm 8 m/s 762 mmHg 76%
02:00 +13°C° 0 mm 8 m/s 762 mmHg 79%
03:00 +13°C° 0 mm 8 m/s 761 mmHg 82%
04:00 +15°C° 0 mm 7 m/s 761 mmHg 83%
05:00 +15°C° 0 mm 7 m/s 761 mmHg 84%
06:00 +16°C° 0 mm 7 m/s 761 mmHg 84%
07:00 +17°C° 0 mm 7 m/s 761 mmHg 80%
08:00 +17°C° 0 mm 6 m/s 762 mmHg 75%
09:00 +19°C° 0 mm 6 m/s 762 mmHg 70%
10:00 +19°C° 0 mm 6 m/s 762 mmHg 68%
11:00 +20°C° 0 mm 5 m/s 762 mmHg 66%
12:00 +20°C° 0 mm 5 m/s 763 mmHg 64%
13:00 +20°C° 0 mm 4 m/s 763 mmHg 64%
14:00 +21°C° 0 mm 4 m/s 763 mmHg 64%
15:00 +21°C° 0 mm 3 m/s 763 mmHg 65%
16:00 +20°C° 0 mm 3 m/s 763 mmHg 68%
17:00 +19°C° 0 mm 3 m/s 764 mmHg 72%
18:00 +19°C° 0 mm 3 m/s 764 mmHg 76%
19:00 +18°C° 0 mm 3 m/s 764 mmHg 80%
20:00 +16°C° 0 mm 2 m/s 764 mmHg 85%
21:00 +15°C° 0 mm 2 m/s 765 mmHg 90%
22:00 +15°C° 0 mm 2 m/s 765 mmHg 90%
23:00 +14°C° 0 mm 2 m/s 765 mmHg 91%

9 Iulie, Joi

Timp Temperatura Precipitaţii Vânt Presiune Umiditate
00:00 +14°C° 0 mm 2 m/s 765 mmHg 91%
01:00 +14°C° 0 mm 2 m/s 765 mmHg 91%
02:00 +14°C° 0 mm 2 m/s 764 mmHg 91%
03:00 +13°C° 0 mm 2 m/s 764 mmHg 92%
04:00 +14°C° 0 mm 2 m/s 764 mmHg 90%
05:00 +15°C° 0 mm 2 m/s 764 mmHg 88%
06:00 +16°C° 0 mm 2 m/s 764 mmHg 87%
07:00 +18°C° 0 mm 3 m/s 764 mmHg 80%
08:00 +19°C° 0 mm 3 m/s 764 mmHg 73%
09:00 +21°C° 0 mm 3 m/s 764 mmHg 67%
10:00 +22°C° 0 mm 3 m/s 764 mmHg 63%
11:00 +23°C° 0 mm 4 m/s 763 mmHg 60%
12:00 +25°C° 0 mm 4 m/s 763 mmHg 56%
13:00 +25°C° 0 mm 5 m/s 763 mmHg 56%
14:00 +25°C° 0 mm 5 m/s 762 mmHg 57%
15:00 +24°C° 0 mm 6 m/s 762 mmHg 57%
16:00 +24°C° 0 mm 6 m/s 761 mmHg 60%
17:00 +23°C° 0 mm 6 m/s 761 mmHg 64%
18:00 +22°C° 0 mm 6 m/s 761 mmHg 67%
19:00 +20°C° 0 mm 6 m/s 760 mmHg 72%
20:00 +17°C° 0 mm 6 m/s 760 mmHg 78%
21:00 +16°C° 0 mm 5 m/s 760 mmHg 83%
22:00 +15°C° 0 mm 6 m/s 760 mmHg 86%
23:00 +15°C° 0 mm 6 m/s 760 mmHg 89%

10 Iulie, Vineri

Timp Temperatura Precipitaţii Vânt Presiune Umiditate
00:00 +15°C° 0 mm 6 m/s 759 mmHg 93%
01:00 +15°C° 0 mm 6 m/s 759 mmHg 91%
02:00 +15°C° 0 mm 6 m/s 759 mmHg 90%
03:00 +16°C° 0 mm 7 m/s 759 mmHg 89%
04:00 +16°C° 0.1 mm 7 m/s 759 mmHg 87%
05:00 +16°C° 0.1 mm 7 m/s 759 mmHg 85%
06:00 +16°C° 0.1 mm 7 m/s 759 mmHg 83%
07:00 +16°C° 0 mm 7 m/s 759 mmHg 78%
08:00 +16°C° 0 mm 7 m/s 759 mmHg 73%
09:00 +16°C° 0 mm 7 m/s 760 mmHg 67%
10:00 +16°C° 0 mm 7 m/s 760 mmHg 62%
11:00 +17°C° 0 mm 7 m/s 760 mmHg 58%
12:00 +18°C° 0 mm 7 m/s 761 mmHg 53%
13:00 +18°C° 0 mm 7 m/s 761 mmHg 54%
14:00 +18°C° 0 mm 7 m/s 761 mmHg 54%
15:00 +18°C° 0 mm 7 m/s 761 mmHg 55%
16:00 +18°C° 0 mm 7 m/s 761 mmHg 56%
17:00 +17°C° 0 mm 6 m/s 762 mmHg 57%
18:00 +17°C° 0 mm 6 m/s 762 mmHg 59%
19:00 +16°C° 0.1 mm 6 m/s 762 mmHg 64%
20:00 +14°C° 0.1 mm 6 m/s 763 mmHg 70%
21:00 +13°C° 0.1 mm 6 m/s 763 mmHg 76%
22:00 +13°C° 0 mm 6 m/s 763 mmHg 78%
23:00 +12°C° 0 mm 5 m/s 764 mmHg 79%
Arată mai mult